Location: New Canada
(47.1017°N, 68.5042°W)
Time: 06:36:58
(UTC+00:00)

EO-79 - Pass Details

Date: 05 April 2023
Orbit: 578 x 593 km, 98.0° (Epoch: 03 June)

Event Time Altitude Azimuth Distance (km) Brightness Sun altitude
Rises 07:56:00 0° 1° (N) 2,827 ? -21.1°
Reaches altitude 10° 07:58:33 10° 345° (NNW) 1,918 ? -20.8°
Enters shadow 08:01:11 21° 307° (NW) 1,350 ? -20.4°
